Location: Bay Creek Ditch
(37.3239°N, 88.6420°W)
Time: 05:21:47
(UTC+00:00)

Daily predictions for brighter satellites

Satellite Brightness Start Highest point End
(mag) Time Altitude Azimuth Time Altitude Azimuth Time Altitude Azimuth
Cosmos 1302 Rocket 4.0 01:16:08 10° NNW 01:21:21 84° ENE 01:26:34 10° SSE
Cosmos 2218 Rocket 4.1 01:17:09 10° S 01:23:11 59° E 01:29:13 10° NNE
Cosmos 1933 3.3 01:19:17 10° N 01:23:23 82° E 01:27:29 10° S
Cosmos 2082 Rocket 4.0 01:24:22 10° ESE 01:25:42 11° E 01:27:01 10° E
Cosmos 2228 Rocket 4.3 01:23:50 10° NNE 01:27:26 24° ENE 01:30:59 10° SE
Cosmos 1782 3.5 01:24:19 10° NNE 01:28:01 35° ENE 01:31:44 10° SE
CZ-2C R/B 3.8 01:27:13 10° S 01:32:01 52° W 01:36:41 10° NNW
Cosmos 1900 4.4 01:27:30 10° SSW 01:32:18 58° ESE 01:37:12 10° NE
Cosmos 1515 Rocket 3.7 01:29:44 10° N 01:34:09 57° E 01:38:31 10° SSE
SL-4 R/B 2.7 01:32:04 10° SSW 01:35:45 31° SE 01:39:11 10° ENE
Resurs 01 Rocket 3.1 01:34:17 10° ESE 01:37:29 20° ENE 01:40:43 10° NNE
Meteor 2-3 Rocket 4.3 01:36:15 10° SSW 01:41:59 66° W 01:47:47 10° N
MONITOR-E 4.3 01:41:37 14° SE 01:43:21 33° ENE 01:45:32 10° N
Cosmos 1151 Rocket 3.8 01:39:56 10° NNW 01:44:06 55° W 01:48:16 10° S
Cosmos 405 3.4 01:40:53 10° NNW 01:44:19 63° W 01:47:43 10° S
ARGOS 3.6 01:39:20 10° S 01:44:41 67° WSW 01:50:03 10° NNW
MOS 1 Rocket 4.5 01:43:34 10° N 01:48:52 55° WNW 01:54:03 10° SSW
CZ-2C R/B 2.5 01:45:38 10° NNE 01:50:50 85° ESE 01:56:04 10° SSW
MOS 1 4.3 01:45:41 10° SSE 01:51:19 86° ENE 01:57:00 10° NNW
Ariane Rocket 3.2 01:48:26 10° S 01:53:28 73° WSW 01:58:32 10° NNW
Shenzhou-11 Module 3.7 01:54:30 10° WNW 01:56:23 20° N 01:58:16 10° NE
USA 267 3.3 01:51:01 10° NE 01:57:36 88° NW 02:04:08 10° SW
Cosmos 1727 Rocket 4.1 01:51:45 10° N 01:58:03 61° E 02:04:19 10° SSE
USA 186 2.9 01:56:05 10° SSW 01:58:11 28° W 02:00:16 10° NW
CZ-2C R/B 3.7 01:53:55 10° NNE 01:58:30 61° ESE 02:02:57 10° S
Cosmos 1812 4.0 01:55:51 10° NNE 01:59:01 24° ENE 02:00:28 19° ESE
Cosmos 407 Rocket 4.2 01:54:50 10° SSE 01:59:35 34° E 02:04:21 10° NE
Cosmos 1992 Rocket 4.0 01:55:52 10° NNW 02:01:07 74° ENE 02:05:42 13° SSE
Cosmos 1743 Rocket 3.9 01:59:34 10° SSW 02:03:58 69° W 02:08:26 10° N
Intercosmos 25 4.3 02:01:04 10° NNE 02:04:28 25° ENE 02:05:31 21° ESE
Cosmos 1980 Rocket 4.2 02:02:16 10° NNE 02:04:49 13° NE 02:07:22 10° ENE
FREGAT/IRIS 4.1 02:05:42 10° SSW 02:08:05 30° W 02:10:28 10° NNW
H-2A R/B 3.9 02:03:45 10° SSW 02:08:14 29° W 02:12:38 10° NW
Cosmos 1441 Rocket 3.4 02:06:44 13° S 02:10:01 49° E 02:13:41 10° NNE
Cosmos 389 Rocket 3.2 02:07:35 10° N 02:10:46 34° ENE 02:11:47 28° ESE
Sich 1 3.3 02:11:50 16° SSE 02:15:09 48° E 02:19:26 10° NNE
ATLAS 5 CENTAUR R/B 2.8 02:10:25 10° NNW 02:16:10 52° NE 02:20:16 23° ESE
Cosmos 1833 Rocket 2.7 02:11:56 10° S 02:17:26 61° ESE 02:22:58 10° NNE
MetOp-A 4.5 02:13:26 10° S 02:18:44 67° WSW 02:24:05 10° NNW
Cosmos 972 Rocket 3.8 02:14:16 10° NNW 02:19:14 78° ENE 02:22:28 21° SSE
Cosmos 1697 Rocket 3.7 02:16:35 10° N 02:21:33 31° ENE 02:23:55 23° E
Cosmos 1821 Rocket 3.9 02:16:50 10° S 02:22:52 69° E 02:29:01 10° NNE
Resurs 1-3 3.7 02:22:07 17° S 02:25:31 77° WSW 02:29:56 10° NNW
Cosmos 1140 Rocket 3.7 02:23:04 14° S 02:27:20 47° ESE 02:32:22 10° NNE
Cosmos 1862 3.6 02:24:37 10° SSW 02:28:38 67° W 02:32:40 10° N
SL-8 R/B 4.4 02:24:12 10° NW 02:28:52 47° NNE 02:31:18 25° E
USA 234 4.4 02:25:18 14° E 02:30:02 33° NNE 02:35:45 10° NNW
FALCON 9 DEB 3.0 02:26:50 10° SW 02:30:17 66° SE 02:32:58 16° NE
SPOT 3 Rocket 3.7 02:27:37 15° S 02:31:54 74° WSW 02:37:07 10° NNW
Cosmos 1666 Rocket 3.6 02:33:26 36° SE 02:34:48 51° E 02:38:59 10° NNE
Cosmos 1867 3.9 02:30:27 11° S 02:35:22 42° ESE 02:40:29 10° NE
Cosmos 1656 3.6 02:30:50 10° NNW 02:36:20 77° ENE 02:39:00 32° SSE
USA 238 DEB 4.0 02:36:16 18° S 02:40:33 38° ESE 02:46:41 10° NE
USA 238 4.0 02:36:50 20° SSE 02:40:39 38° ESE 02:46:46 10° NE
Cosmos 1535 Rocket 4.5 02:42:27 27° SSE 02:45:43 58° E 02:51:43 10° NNE
Cosmos 1805 Rocket 4.4 02:42:22 10° SSW 02:46:39 50° W 02:50:59 10° N
Cosmos 2123 Rocket 4.2 02:43:00 10° N 02:49:02 51° E 02:51:05 37° SE
COSMOS 2406 4.3 02:46:13 10° SW 02:51:44 47° WNW 02:57:16 10° N
Cosmos 2239 Rocket 4.5 02:46:30 10° S 02:52:37 80° W 02:58:47 10° N
Cosmos 676 Rocket 4.2 02:51:59 43° SE 02:53:05 51° ESE 02:58:15 10° NNE
Cosmos 1000 Rocket 4.4 02:47:02 10° N 02:53:19 88° W 02:56:47 28° S
Cosmos 1605 Rocket 4.2 02:54:53 39° SE 02:56:17 46° E 03:02:03 10° NNE
Meteor 2-20 4.4 02:50:41 10° N 02:56:49 68° E 02:59:01 41° SSE
Landsat 7 3.7 03:01:15 58° SE 03:02:06 74° ENE 03:06:51 10° N
SL-16 R/B 4.4 03:00:49 10° NNE 03:02:29 11° NE 03:03:57 10° ENE
Meteor 1-4 Rocket 3.5 03:03:57 10° N 03:06:20 39° NNE 03:06:20 39° NNE
Cosmos 2369 3.7 03:01:41 10° NNW 03:07:25 68° ENE 03:08:38 53° ESE
Cosmos 1633 Rocket 3.1 03:07:43 52° SSW 03:08:43 76° W 03:13:10 10° N
Cosmos 2082 Rocket 2.2 03:03:15 10° SSW 03:08:56 85° WNW 03:14:39 10° NNE
CENTAUR R/B 3.5 03:13:55 27° ENE 03:13:55 27° ENE 03:17:35 10° NE
Resurs 01 Rocket 3.0 03:11:49 23° SW 03:13:44 33° W 03:17:44 10° NNW
SL-4 R/B 3.5 03:11:39 10° W 03:15:18 34° NNW 03:18:43 10° NNE
ERS-1 Rocket 3.2 03:16:08 52° ENE 03:16:14 52° ENE 03:21:06 10° N
Cosmos 2278 3.9 03:11:24 10° NNW 03:17:00 53° ENE 03:17:38 51° E
Cosmos 1707 Rocket 4.3 03:19:28 10° NNW 03:23:37 46° W 03:24:12 43° WSW
Meteor 1-20 Rocket 4.1 03:22:39 62° SSE 03:23:39 78° E 03:29:30 10° NNE
Cosmos 1818 3.4 03:19:58 10° NNW 03:25:26 79° WSW 03:25:59 70° S
Cosmos 2322 Rocket 4.2 03:22:41 10° NNE 03:25:39 14° NE 03:26:26 14° ENE
Cosmos 1954 Rocket 4.0 03:25:27 48° SSW 03:26:57 78° WNW 03:32:18 10° NNE
Meteor 1-27 Rocket 4.5 03:24:32 10° NNW 03:30:15 51° W 03:32:30 34° SSW
Spot 2 Rocket 3.8 03:29:27 51° SW 03:30:19 59° W 03:35:21 10° NNW
Cosmos 1470 Rocket 3.8 03:31:14 67° NNW 03:31:14 67° NNW 03:35:06 10° N
Lacrosse 5 4.2 03:29:55 10° N 03:32:48 15° NNE 03:34:47 12° NE
NOSS 3-2 (A) 3.2 03:33:15 36° SW 03:35:39 83° WNW 03:41:55 10° NNE
Cosmos 1153 Rocket 4.4 03:36:05 62° E 03:36:05 62° E 03:42:09 10° NNE
IGS 5A 4.5 03:36:29 40° W 03:36:29 40° W 03:40:15 10° NNW
GP-B 3.8 03:34:13 10° N 03:38:30 48° W 03:38:42 47° W
Meteor 1-14 Rocket 4.4 03:41:35 58° ENE 03:41:35 58° ENE 03:46:48 10° NNE
NOSS 3-2 (C) 3.7 03:42:27 49° ENE 03:42:27 49° ENE 03:47:09 10° NE
Cosmos 1980 Rocket 2.1 03:43:56 10° NNW 03:49:26 84° NNW 03:49:26 84° NNW
Cosmos 1862 Rocket 4.4 03:45:45 10° NNW 03:49:27 47° WNW 03:49:27 47° WNW
Cosmos 1447 Rocket 4.4 03:44:42 10° N 03:51:04 77° E 03:51:12 77° E
Terra 2.4 03:52:14 52° N 03:52:14 52° N 03:55:54 10° N
Cosmos 921 Rocket 4.4 03:47:38 10° N 03:50:09 34° N 03:50:09 34° N
SPOT 1/Viking Rocket 4.3 03:53:31 42° WSW 03:53:53 43° W 03:58:51 10° NNW
ATLAS 5 CENTAUR R/B 3.8 03:55:33 10° WNW 04:00:46 28° WSW 04:01:49 27° SW
SPOT 5 3.8 04:03:34 39° NW 04:03:34 39° NW 04:06:31 10° NNW
Cosmos 1697 Rocket 3.8 04:00:29 10° NW 04:05:26 33° WSW 04:05:40 33° WSW
Meteor 1-18 Rocket 4.4 04:00:07 10° N 04:04:59 69° NNW 04:04:59 69° NNW
Cosmos 1763 Rocket 4.4 04:07:06 10° N 04:11:00 43° NNE 04:11:00 43° NNE
USA 234 3.1 04:12:39 77° SW 04:12:39 77° SW 04:19:11 10° NW
Meteor 2-4 Rocket 4.4 04:13:55 10° N 04:18:09 48° NNE 04:18:09 48° NNE
ATLAS 3B R/B 3.9 04:29:08 28° ENE 04:29:08 28° ENE 04:32:12 10° NE
Cosmos 2100 Rocket 4.3 04:38:30 61° NW 04:38:30 61° NW 04:43:51 10° N
SL-16 R/B 3.1 04:41:50 10° NNW 04:45:47 46° N 04:45:47 46° N
Cosmos 2219 Rocket 4.4 04:56:30 10° NNE 04:59:48 16° NE 04:59:48 16° NE
CENTAUR R/B 3.6 05:01:00 34° WNW 05:02:19 38° NW 05:08:41 10° NNE
Cosmos 2322 Rocket 3.3 05:04:41 10° NNW 05:08:14 40° NNW 05:08:14 40° NNW
Lacrosse 5 3.8 05:11:39 10° NW 05:13:56 26° NNW 05:13:56 26° NNW
Cosmos 2360 Rocket 3.5 05:19:30 10° NNW 05:22:55 37° N 05:22:55 37° N
Cosmos 2333 Rocket 3.7 05:37:53 10° N 05:41:37 31° NNE 05:41:37 31° NNE
ATLAS 3B R/B 3.9 06:16:20 32° NW 06:16:45 32° NW 06:22:37 10° NNE
Cosmos 2227 Rocket 4.2 06:24:31 20° ENE 06:24:31 20° ENE 06:26:41 10° NE
Lacrosse 4 Rocket 4.4 06:42:31 12° NNW 06:42:31 12° NNW 06:43:08 10° N
Cosmos 2219 Rocket 3.8 06:38:45 10° NNW 06:41:28 29° NNW 06:41:28 29° NNW
CZ-2D R/B 3.5 06:58:10 10° NNE 07:01:45 34° ENE 07:01:45 34° ENE
ADEOS II 4.3 07:01:36 10° NE 07:04:13 16° E 07:04:13 16° E
COSMOS 2428 4.4 07:02:26 10° NNW 07:04:47 25° NW 07:04:47 25° NW
Cosmos 2297 Rocket 3.0 07:18:05 47° NNE 07:18:05 47° NNE 07:22:04 10° NNE
Cosmos 2219 4.1 07:20:21 45° N 07:20:21 45° N 07:24:17 10° NNE
Cosmos 2279 Rocket 4.5 07:22:52 53° ENE 07:22:52 53° ENE 07:28:21 10° NNE
Cosmos 2333 Rocket 4.4 07:22:27 10° NW 07:23:36 15° NW 07:23:36 15° NW
Cosmos 1634 Rocket 4.3 07:30:05 63° NNW 07:30:05 63° NNW 07:35:18 10° N
Cosmos 2026 Rocket 4.2 07:22:55 10° N 07:28:00 63° N 07:28:00 63° N
Cosmos 2237 Rocket 3.1 07:27:59 10° NNW 07:31:36 41° NNW 07:31:36 41° NNW
SL-16 R/B 2.6 08:00:22 63° WNW 08:00:22 63° WNW 08:05:56 10° NNW
Resurs 1-4 Rocket 2.8 07:54:39 10° N 07:58:42 46° NNW 07:58:42 46° NNW
Cosmos 2227 Rocket 3.1 08:06:20 37° NW 08:06:20 37° NW 08:11:05 10° N
SJ 16-02 2.5 08:08:04 38° N 08:08:04 38° N 08:10:56 10° N
Cosmos 1340 Rocket 4.3 08:10:57 33° ENE 08:10:57 33° ENE 08:13:43 10° NNE
Cosmos 1937 Rocket 4.0 08:10:16 52° ESE 08:10:19 52° ESE 08:15:29 10° NNE
USA 215 3.2 08:08:27 10° NE 08:14:59 74° NW 08:16:08 60° W
CBERS-1 4.0 08:10:58 10° NNE 08:15:44 77° N 08:15:44 77° N
Cosmos 1898 Rocket 3.5 08:16:55 80° NE 08:16:55 80° NE 08:21:52 10° NNE
Cosmos 1461 3.9 08:18:18 46° N 08:18:18 46° N 08:21:38 10° NNE
SL-4 R/B 3.9 08:17:50 23° NE 08:17:50 23° NE 08:20:12 10° E
Cosmos 1953 4.3 08:17:50 22° E 08:18:18 22° E 08:21:27 10° NE
Cosmos 1455 Rocket 3.6 08:19:54 56° NNE 08:19:54 56° NNE 08:23:29 10° N
Cosmos 2266 Rocket 4.3 08:13:04 10° N 08:19:23 64° E 08:21:46 38° SSE
ATLAS 3B CENTAUR R/B 3.7 08:20:18 44° SW 08:23:00 51° S 08:29:54 10° ESE
ARIANE 5 R/B 3.2 08:17:57 10° NNE 08:23:01 47° E 08:24:01 42° SE
Cosmos 990 Rocket 4.0 08:24:28 72° NW 08:24:28 72° NW 08:29:24 10° NNE
Cosmos 1680 Rocket 3.4 08:21:03 10° NNW 08:26:18 81° ENE 08:26:46 72° SE
Cosmos 1655 Rocket 3.8 08:20:13 10° N 08:26:29 84° W 08:27:35 63° S
Cosmos 2082 4.2 08:27:14 44° WNW 08:27:14 44° WNW 08:32:36 10° N
SL-08 R/B 4.2 08:25:32 29° SE 08:27:39 48° ENE 08:32:25 10° N
Cosmos 1892 Rocket 4.1 08:28:04 10° N 08:31:30 52° NNW 08:31:30 52° NNW
IDEFIX/ARIANE 42P 3.7 08:29:24 10° NNE 08:34:15 38° E 08:36:21 27° SE
NOSS 2-3 (E) 3.7 08:36:52 65° E 08:36:52 65° E 08:41:13 10° NE
Cosmos 1626 4.2 08:33:18 10° NNW 08:34:37 20° NNW 08:34:37 20° NNW
Meteor 2-19 Rocket 4.4 08:33:53 10° NNW 08:39:57 62° W 08:40:47 57° SW
IRS-1D 3.8 08:35:33 10° N 08:40:24 49° WNW 08:40:24 49° WNW
Meteor 1-28 Rocket 3.8 08:40:36 52° E 08:40:44 53° ENE 08:44:26 10° N
CZ-2D R/B 3.6 08:38:49 10° NNW 08:43:04 24° WNW 08:43:04 24° WNW
SL-16 R/B 2.1 08:37:36 10° NNW 08:43:14 65° WSW 08:43:47 62° SW
CZ-4B R/B 4.2 08:39:37 10° N 08:43:34 36° WNW 08:43:34 36° WNW
NOSS 3-1 (C) 3.3 08:43:10 54° W 08:43:59 60° NW 08:50:01 10° NNE
ADEOS II 2.2 08:39:41 10° N 08:44:48 55° WNW 08:45:09 54° W
Meteor 1-24 Rocket 3.9 08:42:24 10° NNW 08:47:20 48° W 08:47:20 48° W
Meteor 2-10 4.3 08:48:03 40° SSE 08:49:58 71° E 08:55:32 10° NNE
Cosmos 1470 3.6 08:53:32 38° NW 08:53:32 38° NW 08:56:29 10° N
Cosmos 158 Rocket 4.1 08:49:26 10° NNW 08:54:41 54° WSW 08:54:59 54° WSW
Atlas Centaur 2 4.1 08:53:57 20° S 08:55:51 23° SSE 09:01:48 10° ESE
H-2A R/B 4.0 08:52:43 10° SE 08:56:14 28° ENE 08:59:44 10° NNE
Cosmos 2263 Rocket 2.2 08:54:47 44° S 08:56:35 77° ESE 09:02:09 10° NNE
SL-23 DEB 4.0 08:53:51 10° NW 08:59:56 85° SW 09:03:36 10° SE
NOSS 2-3 (D) 3.4 09:00:01 68° WSW 09:00:27 77° WNW 09:05:07 10° NNE
IRS-1C 4.3 08:55:17 10° N 09:00:30 56° WNW 09:01:38 47° WSW
Cosmos 2297 Rocket 4.3 08:59:54 11° WNW 09:01:18 12° NW 09:03:26 10° NNW
Cosmos 2098 Rocket 3.9 08:59:48 10° NNW 09:04:54 53° W 09:06:46 39° SW
Cosmos 1544 Rocket 4.0 09:05:46 43° W 09:05:46 43° W 09:10:03 10° N
Meteor 2-21 4.4 09:02:46 10° N 09:08:51 85° E 09:14:37 12° S
Cosmos 2298 Rocket 4.4 09:06:52 27° S 09:09:40 60° ESE 09:14:55 10° NNE
Delta 2 Rocket 4.1 09:11:44 31° SSE 09:11:44 31° SSE 09:14:57 10° E
USA 229 DEB 4.2 09:15:07 29° WSW 09:17:57 45° NW 09:24:27 10° NNE
USA 229 4.1 09:15:13 29° WSW 09:18:01 45° NW 09:24:31 10° NNE
SeaSat 1 2.9 09:15:52 10° NNE 09:20:44 59° ESE 09:23:49 22° S
Cosmos 1603 4.0 09:17:17 10° NNW 09:23:01 70° ENE 09:28:41 10° SSE
H-2A R/B (2) 2.8 09:26:58 18° SSE 09:26:58 18° SSE 09:28:28 10° SE
Cosmos 2285 Rocket 4.1 09:21:47 20° S 09:26:19 78° ESE 09:32:37 10° NNE
NOSS 2-3 (C) 4.4 09:27:29 30° W 09:28:49 38° NW 09:33:16 10° NNE
NOSS 3-1 (A) 3.7 09:26:42 29° WSW 09:29:08 46° NW 09:35:03 10° NNE
Spot 4 Rocket 4.2 09:24:07 10° N 09:29:10 57° WNW 09:31:42 28° SW
Cosmos 1602 Rocket 3.4 09:25:39 10° NNW 09:29:58 71° W 09:32:55 20° S
ERS-2 2.9 09:27:20 10° SSE 09:30:52 52° ENE 09:34:26 10° N
Cosmos 1726 3.0 09:34:26 29° W 09:34:36 30° WNW 09:37:53 10° NNW
Cosmos 2084 4.0 09:33:07 23° S 09:35:39 55° ESE 09:40:00 10° NE
CZ-4C R/B 2.7 09:34:27 16° SSE 09:36:55 86° ENE 09:40:12 10° N
OAO 3 Rocket 3.4 09:35:51 29° WSW 09:38:12 59° S 09:43:03 10° E
Helios 1B 4.4 09:34:10 10° S 09:38:29 76° WSW 09:42:50 10° NNW
CSL-04 DEB 4.2 09:36:37 12° S 09:40:08 68° WSW 09:44:03 10° NNW
CZ-2C R/B 2.9 09:37:10 10° N 09:40:56 54° WNW 09:42:36 29° SW
DEBRIS 2.5 09:41:38 33° W 09:42:18 42° NW 09:44:18 10° NE
Cosmos 1726 Rocket 4.2 09:41:24 10° S 09:45:45 58° E 09:50:10 10° NNE
Cosmos 1908 3.3 09:46:32 23° SSW 09:48:47 57° W 09:52:39 10° N
Cosmos 1943 3.1 09:43:11 10° NNW 09:48:50 85° WSW 09:54:27 10° SSE
Cosmos 1553 Rocket 3.9 09:44:40 11° SSW 09:50:32 73° W 09:56:38 10° N
Cosmos 1953 3.7 09:53:33 20° W 09:54:34 22° WNW 09:57:45 10° NNW
Landsat 5 3.3 09:52:49 10° S 09:56:36 57° W 10:00:32 10° NNW
SL-4 R/B 2.0 09:53:50 10° WNW 09:57:00 37° SW 10:00:12 10° SSE
Cosmos 1356 Rocket 3.7 09:52:57 10° S 09:57:09 69° E 10:01:19 10° NNE
ATLAS CENTAUR R/B 1.3 09:54:24 17° SSW 09:57:36 87° ESE 10:01:37 10° NNE
Cosmos 2150 Rocket 4.2 09:54:13 18° SW 09:57:50 51° WNW 10:02:55 10° N
PSLV R/B 3.5 09:54:48 10° N 09:59:13 82° WNW 10:03:32 10° SSW
Meteor 2-8 Rocket 4.5 09:54:19 10° SSW 10:00:25 67° W 10:06:32 10° N
ARIANE 5 R/B 4.1 09:58:00 10° NNW 10:01:43 20° WNW 10:04:20 14° W
NOSS 8 (E) 4.3 10:00:08 19° SW 10:02:29 72° WNW 10:05:33 10° NNE
Cosmos 1745 Rocket 4.1 09:59:05 10° N 10:05:24 86° E 10:11:36 10° S
deb Chang Zheng 4 3.7 10:02:56 10° NNE 10:07:18 77° ESE 10:11:39 10° S
SAR-Lupe-4 4.5 10:04:27 10° SSE 10:07:55 52° ENE 10:11:25 10° N
MSX 4.4 10:04:47 10° N 10:10:08 41° WNW 10:15:22 11° SW
IDEFIX/ARIANE 42P 3.8 10:09:30 10° NNW 10:13:34 24° WNW 10:17:09 12° WSW
Cosmos 2058 Rocket 3.3 10:09:47 10° S 10:14:16 77° E 10:18:44 10° N
Cosmos 2228 3.3 10:10:08 10° SSW 10:14:19 47° W 10:18:34 10° N
Meteor 1-11 4.2 10:08:38 10° N 10:14:24 83° W 10:20:04 10° S
CZ-2C R/B 2.2 10:10:45 10° N 10:15:18 67° WNW 10:19:54 10° SSW
ADEOS 3.7 10:11:29 10° NNE 10:16:43 78° ESE 10:21:56 10° S
Cosmos 1328 4.2 10:13:38 10° NNW 10:17:25 42° W 10:21:11 10° SSW
S3M 4.1 10:11:59 10° SSW 10:18:15 61° W 10:24:36 10° N
NOSS 2-2 (D) 4.3 10:17:31 10° S 10:20:54 38° ESE 10:24:18 10° NE
Cosmos 1758 Rocket 4.1 10:17:02 10° NNW 10:21:00 37° W 10:24:58 10° SSW
NOSS 2-2 (E) 3.7 10:18:08 10° SSW 10:21:39 55° ESE 10:25:16 10° NE
ALOS 3.3 10:17:37 10° NNE 10:22:08 47° E 10:26:37 10° S
Cosmos 1844 4.2 10:16:54 10° S 10:22:37 65° ESE 10:28:21 10° NNE
SAR-Lupe-1 4.2 10:19:39 10° SSE 10:23:14 80° ENE 10:26:50 10° N
Cosmos 1703 4.2 10:20:49 10° NNW 10:24:15 29° W 10:27:40 10° SSW
Cosmos 1300 2.7 10:22:59 10° SSW 10:26:46 65° W 10:30:34 10° N
USA 267 3.3 10:20:40 10° SE 10:27:08 66° SW 10:33:39 10° NW
Cosmos 1125 Rocket 4.1 10:25:10 10° SW 10:30:04 41° WNW 10:35:02 10° N
H-2A R/B 3.3 10:29:08 10° SW 10:32:11 20° W 10:35:14 10° NW
Cosmos 1932 4.5 10:27:35 10° NW 10:33:59 67° WSW 10:40:13 10° SSE
FALCON 9 DEB 4.0 10:36:29 10° WNW 10:39:31 29° SW 10:42:33 10° SSE
Cosmos 2263 Rocket 4.0 10:38:00 10° W 10:41:07 15° NW 10:44:15 10° NNW
ATLAS 3B CENTAUR R/B 3.6 10:37:23 10° W 10:44:05 23° SSW 10:47:53 10° SSE
Atlas Centaur 2 3.7 10:37:24 10° SW 10:44:37 44° SSE 10:52:35 10° E
